SCP
0 0 0 0 0 0 0 0 0 0 0 0 0 0 0 0 0 0 0 0 0 0 0 0 0 0 0 0 0 0 0 0 0 0 0 0 0 0 0 0 0 0 0
0 0 0 0 0 0 0 0 0 0 0 0 0 0 0 0 0 0 0 0 0 0 0 0 0 0 0 0 0 0 0 0 0 0 0 0 0 0 0 0 0 0 0
0 0 0 0 0 0 0 0 0 0 0 0 0 0 0 0 0 0 0 0 0 0 0 0 0 0 0 0 0 0 0 0 0 0 0 0 0 0 0 0 0 0 0
0 0 0 0 0 0 0 0 0 0 0 0 0 0 0 0 0 0 0 0 0 0 0 0 0 0 0 0 0 0 0 0 0 0 0 0 0 0 0 0 0 0 0
0 0 0 0 0 0 0 0 0 0 0 0 0 0 0 0 0 0 0 0 0 0 0 0 0 0 0 0 0 0 0 0 0 0 0 0 0 0 0 0 0 0 0
0 0 0 0 0 0 0 0 0 0 0 0 0 0 0 0 0 0 0 0 0 0 0 0 0 0 0 0 0 0 0 0 0 0 0 0 0 0 0 0 0 0 0
0 0 0 0 0 0 0 0 0 0 0 0 0 0 0 0 0 0 0 0 0 0 0 0 0 0 0 0 0 0 0 0 0 0 0 0 0 0 0 0 0 0 0
0 0 0 0 0 0 0 0 0 0 0 0 0 0 0 0 0 0 0 0 0 0 0 0 0 0 0 0 0 0 0 0 0 0 0 0 0 0 0 0 0 0 0
0 0 0 0 0 0 0 0 0 0 0 0 0 0 0 0 0 0 0 0 0 0 0 0 0 0 0 0 0 0 0 0 0 0 0 0 0 0 0 0 0 0 0
0 0 0 0 0 0 0 0 0 0 0 0 0 0 0 0 0 0 0 0 0 0 0 0 0 0 0 0 0 0 0 0 0 0 0 0 0 0 0 0 0 0 0
0 0 0 0 0 0 0 0 0 0 0 0 0 0 0 0 0 0 0 0 0 0 0 0 0 0 0 0 0 0 0 0 0 0 0 0 0 0 0 0 0 0 0
0 0 0 0 0 0 0 0 0 0 0 0 0 0 1 1 1 1 0 0 0 0 0 0 0 0 0 0 0 0 0 0 0 1 1 1 1 1 0 0 0 0 0
0 0 0 0 0 0 0 0 0 0 0 0 0 1 1 1 1 1 1 1 0 0 0 0 0 0 0 0 0 0 0 0 1 1 1 1 1 1 1 1 0 0 0
0 0 0 0 1 1 1 1 0 0 0 1 1 1 1 1 1 1 1 1 1 0 0 0 0 0 0 0 0 0 0 1 1 1 1 1 1 1 1 1 0 0 0
0 0 0 1 1 1 1 1 1 1 1 1 1 1 1 1 1 1 1 1 1 0 0 0 0 0 0 0 0 0 0 0 1 1 1 1 0 0 0 0 0 0 0
0 0 0 1 1 1 1 1 1 1 1 1 1 1 1 1 1 1 1 1 1 1 0 0 0 0 0 0 0 0 0 0 1 1 1 1 1 0 0 0 0 0 0
1 1 1 1 1 1 1 1 1 1 1 1 1 1 1 1 1 1 1 1 1 1 1 1 0 0 0 0 0 0 0 0 1 1 1 1 1 1 0 0 0 0 0
1 1 1 1 1 1 1 1 1 1 1 1 1 1 1 1 1 1 1 1 1 1 1 1 0 0 0 0 0 0 0 0 1 1 1 1 1 1 1 0 0 0 0
1 1 1 1 1 1 1 1 1 1 1 1 1 1 1 1 1 1 1 1 1 1 1 1 1 0 0 0 0 0 0 0 0 1 1 1 1 0 0 0 1 0 0
1 1 1 1 1 1 1 1 1 1 1 1 1 1 1 1 1 1 1 1 1 1 1 1 1 1 0 0 0 0 0 0 0 0 0 0 0 0 0 0 0 0 0
1 1 1 1 1 1 1 1 1 1 1 1 1 1 1 1 1 1 1 1 1 1 1 1 1 1 1 0 0 0 0 0 0 0 0 0 0 0 0 0 0 0 0
1 1 1 1 1 1 1 1 1 1 1 1 1 1 1 1 1 1 1 1 1 1 1 1 1 1 1 0 0 0 0 0 0 0 0 0 0 0 0 0 0 0 0
1 1 1 1 1 1 1 1 1 1 1 1 1 1 1 1 1 1 1 1 1 1 1 1 1 1 0 0 0 0 0 0 0 0 0 0 0 0 0 0 0 0 0
1 1 1 1 1 1 1 1 1 1 1 1 1 1 1 1 1 1 1 1 1 1 1 0 0 0 0 0 0 0 0 0 0 0 0 0 0 0 0 0 0 0 0
1 1 1 1 1 1 1 1 1 1 1 1 1 1 0 0 1 1 1 0 0 0 0 0 0 0 0 0 0 0 0 0 0 0 0 0 0 0 0 0 0 0 0
1 1 1 1 1 1 1 1 1 1 1 1 1 1 0 0 1 1 0 0 0 0 0 0 0 0 0 0 0 0 0 0 0 0 0 0 0 0 0 0 0 0 0
Wind_Speed
7 7 7 6 6 5 4 4 3 3 2 1 1 1 1 1 1 1 2 1 1 1 1 1 2 1 2 3 3 2 3 2 2 2 2 3 3 2 2 1 1 2 2
8 8 8 7 7 6 5 4 4 3 3 2 1 1 0 0 1 1 2 1 1 1 1 1 1 2 2 3 3 2 1 2 2 1 1 2 3 2 2 2 1 1 1
9 9 9 8 8 7 6 4 4 4 3 3 2 2 2 1 2 2 1 1 1 1 1 1 1 1 1 2 2 2 2 1 1 0 1 0 1 1 2 2 2 1 1
10 10 10 9 9 8 7 6 5 4 4 4 3 2 1 1 1 1 1 1 1 1 1 1 1 0 1 1 2 2 1 1 1 2 0 1 1 1 1 1 2 2 1
10 10 10 10 9 8 7 7 5 4 4 4 4 3 2 1 1 1 2 0 1 1 1 1 1 1 1 1 0 1 1 1 1 0 1 2 1 2 1 1 1 1 1
10 10 10 9 9 8 7 7 6 5 5 5 5 4 2 2 1 1 1 1 1 1 1 1 1 1 1 1 2 1 2 1 1 1 1 1 1 1 1 2 2 1 1
10 10 11 10 10 9 8 7 7 6 6 6 5 5 4 4 3 2 2 1 1 1 1 1 1 1 1 2 2 2 2 2 2 2 1 1 1 1 1 2 2 2 1
9 10 11 11 10 10 9 9 8 7 7 6 5 5 5 4 3 2 2 1 1 0 1 1 1 2 2 2 2 2 2 2 2 2 1 1 1 1 2 2 2 2 2
8 9 10 11 11 10 10 10 9 8 7 7 6 5 5 3 2 2 3 2 1 1 2 2 2 2 2 3 3 2 3 3 3 3 3 2 2 2 2 2 3 3 3
7 7 8 9 9 9 10 9 9 9 8 7 6 5 5 4 3 3 2 2 2 1 2 2 2 2 3 3 3 3 3 3 3 2 2 3 2 2 3 3 3 3 3
7 7 7 8 9 9 10 9 9 9 8 7 6 5 5 5 5 4 3 3 2 2 2 2 2 2 3 3 3 3 3 4 3 3 3 3 3 3 3 3 3 3 3
7 7 7 8 9 9 9 9 9 9 8 7 7 6 5 5 5 4 4 3 3 3 2 2 2 3 3 3 3 3 3 3 4 4 4 4 3 4 3 3 4 3 3
6 6 7 7 8 9 9 9 8 8 7 7 7 6 6 5 5 4 3 3 3 2 2 2 2 2 2 2 3 3 3 3 3 4 4 4 4 4 3 4 4 4 4
6 6 6 7 7 8 8 8 8 7 7 6 6 6 6 5 5 4 3 3 2 2 2 2 2 2 2 3 3 3 3 3 3 4 4 4 5 5 4 4 4 4 4
7 7 7 7 7 8 8 8 7 6 6 6 6 5 5 5 4 4 3 3 2 3 3 3 3 3 3 3 2 3 3 4 4 4 4 4 3 2 3 4 4 4 4
7 7 7 7 7 8 8 8 7 6 6 6 5 5 4 4 4 4 3 3 3 3 3 3 3 4 3 1 1 4 4 4 4 4 5 5 5 4 4 4 4 4 5
5 6 6 7 7 7 7 8 7 7 7 6 5 5 5 4 4 4 4 3 4 3 3 4 4 4 2 2 3 4 5 5 4 5 4 5 3 5 5 5 5 6 6
5 6 6 6 6 7 7 7 7 8 7 7 6 5 5 5 4 4 4 3 3 3 3 3 4 4 3 3 3 4 6 5 5 5 5 5 4 4 4 5 5 6 6
4 4 5 6 6 6 6 7 7 7 6 5 5 5 5 5 5 4 3 3 3 3 3 4 4 4 3 3 4 4 5 4 5 5 5 5 5 3 4 6 5 5 5
4 4 5 5 6 5 6 7 6 6 5 4 4 4 4 5 4 3 3 3 3 3 4 3 4 4 4 3 4 6 5 4 4 4 5 4 4 3 5 6 6 6 6
5 5 5 5 5 5 5 6 6 5 4 4 3 3 3 4 4 3 3 3 3 3 3 3 4 4 3 4 5 5 5 4 4 4 4 3 4 5 6 7 6 6 6
5 5 5 4 4 4 5 5 4 4 4 4 4 4 4 3 3 3 3 3 3 4 4 3 4 3 3 3 4 6 6 6 5 5 4 2 3 5 7 7 5 6 7
4 4 5 4 4 3 3 4 3 3 4 4 4 4 4 3 3 3 4 3 4 4 3 3 3 3 2 2 5 7 7 7 6 4 2 2 5 6 7 8 7 7 7
3 3 4 4 3 3 2 2 3 3 4 4 4 3 3 4 3 3 3 3 3 4 3 4 4 4 3 2 2 2 4 5 6 5 4 6 8 8 6 5 6 6 5
2 2 2 3 3 2 2 2 3 3 3 4 4 4 4 3 3 3 3 4 3 3 4 4 4 4 4 2 2 4 4 4 4 5 5 5 4 5 5 5 5 5 5
2 2 2 2 2 2 2 1 2 3 4 4 4 4 4 3 4 4 3 2 4 3 5 5 6 5 4 3 5 6 6 6 6 6 6 5 5 5 5 5 5 5 5
Wind_Direction
174 172 175 174 171 172 174 176 181 170 188 185 195 167 139 133 111 104 80 84 77 92 62 52 101 98 98 102 115 116 128 123 115 120 118 115 114 103 113 101 89 111 115
179 177 179 180 180 179 179 178 185 184 193 171 184 188 135 153 108 83 83 74 89 115 140 90 114 111 117 120 120 122 113 123 132 151 157 149 140 126 106 107 114 99 107
186 181 184 186 185 183 183 183 188 185 184 175 180 168 162 175 130 125 118 99 92 99 66 100 71 101 149 116 133 144 136 131 147 197 314 312 92 111 117 105 96 85 66
189 185 184 186 188 187 182 181 185 184 179 181 180 186 167 146 111 129 105 116 103 100 117 120 113 161 119 123 181 125 171 183 168 145 89 357 38 231 155 141 115 115 110
190 187 186 183 187 185 182 178 178 181 180 180 174 191 194 183 151 142 125 157 120 121 119 137 140 182 184 136 153 140 227 217 221 162 155 158 167 230 225 170 150 137 102
188 187 184 180 185 184 184 178 172 177 179 180 179 186 189 198 173 174 155 185 149 144 137 148 165 201 185 169 194 203 188 219 267 273 238 199 191 197 207 196 184 169 139
183 183 182 183 186 185 184 180 176 178 181 182 185 185 192 197 197 209 182 216 177 153 150 188 209 208 181 190 200 199 208 205 212 229 238 243 243 228 224 218 195 177 183
179 183 183 184 186 185 184 180 178 181 181 182 184 189 195 203 195 197 218 213 218 194 160 211 217 225 219 213 203 216 200 189 201 213 232 233 229 228 225 221 206 202 204
175 180 185 185 186 185 185 184 179 180 182 182 182 188 195 201 197 195 211 213 213 200 203 223 223 229 229 229 227 222 208 197 208 204 207 226 218 225 227 224 232 236 230
172 176 182 183 184 185 183 184 182 181 183 184 190 185 190 193 198 211 217 232 230 215 226 237 235 240 240 233 232 224 201 205 205 209 222 238 233 228 229 230 237 248 252
176 173 177 179 180 180 179 180 182 181 182 188 191 192 191 189 195 202 209 215 224 217 223 234 242 247 243 237 232 234 218 213 210 216 218 229 239 238 234 229 229 232 238
175 172 172 172 176 178 179 179 182 183 183 184 188 191 190 192 197 196 205 213 217 223 222 228 233 245 244 239 232 228 224 221 221 224 229 231 227 227 244 234 231 232 229
175 169 169 171 175 176 178 180 184 185 183 182 186 184 188 192 201 200 201 210 217 227 225 225 232 237 243 245 241 238 236 235 237 235 233 234 235 234 231 236 231 228 218
175 174 171 175 175 176 175 178 181 182 181 185 188 184 193 195 199 199 196 200 208 222 227 228 235 234 234 239 237 235 239 241 242 242 239 238 236 232 230 230 232 232 223
185 182 183 177 176 174 172 174 174 174 177 183 188 187 195 196 199 196 196 202 217 228 225 230 229 231 231 231 237 245 237 239 240 242 242 236 236 259 251 251 233 227 226
190 187 183 179 180 177 174 169 169 171 178 187 188 182 191 193 197 200 201 208 220 235 231 235 238 241 248 112 236 259 250 241 241 242 242 229 211 208 220 249 258 254 238
182 181 180 179 179 177 174 173 169 169 177 181 179 178 186 197 204 207 204 217 224 226 235 244 243 249 243 192 224 237 255 245 245 246 244 247 219 206 219 212 218 234 244
178 173 175 170 170 167 169 171 166 166 171 175 178 182 189 200 204 211 220 230 238 235 238 246 251 253 238 198 223 230 242 248 246 247 244 245 240 229 223 223 221 227 228
162 160 162 157 154 156 158 159 161 163 168 173 177 180 190 194 201 210 217 229 239 243 247 244 248 251 244 200 200 221 242 239 244 246 245 243 236 205 215 229 227 233 238
137 140 143 144 145 150 156 160 165 167 173 174 173 177 189 197 204 212 227 233 237 243 251 250 255 259 260 187 194 219 245 240 244 238 236 228 238 219 213 230 229 232 239
134 136 138 138 141 152 160 166 166 170 172 169 164 179 196 205 209 211 223 231 241 250 255 255 252 250 247 187 191 219 254 256 251 248 243 216 192 216 223 237 242 238 241
138 141 138 135 143 152 162 170 169 165 167 170 172 184 199 216 204 210 220 225 241 241 241 242 255 250 222 209 201 214 239 270 261 260 261 232 181 219 229 232 239 241 240
133 139 137 132 134 146 168 174 159 164 175 179 187 197 202 212 227 221 222 223 226 245 252 255 260 264 257 203 193 207 226 242 253 266 286 244 210 222 228 222 225 225 233
136 142 139 138 136 138 148 161 157 172 186 193 198 204 210 218 220 236 238 246 245 246 254 262 265 267 261 258 234 230 233 232 241 257 240 219 219 229 239 220 218 231 239
140 147 149 146 146 149 160 175 173 186 199 205 209 215 221 227 231 238 252 254 256 262 261 268 271 274 271 275 264 251 252 254 257 260 251 244 234 232 231 230 227 228 226
145 151 160 168 168 170 174 167 175 197 210 219 223 232 235 226 237 239 239 228 249 219 228 245 260 263 258 254 244 243 250 253 244 244 247 248 246 247 246 240 233 229 231